Probability
3 2 2 2 1 0 0 0 0 0 0 1 1 1 0 0 0 0 0 0 1 2 2 1 1 0 1 1 1 0 0 0 0 0 0 0 0 0 0 0 0 0 0 0 0 0 0 0 0
3 1 1 1 0 0 0 0 0 0 0 0 0 0 0 0 0 0 0 0 0 1 1 1 1 1 0 0 0 0 0 0 0 0 0 0 0 0 0 0 0 0 0 0 0 0 0 0 0
4 2 1 0 0 0 0 0 0 0 0 0 0 0 0 0 0 0 1 1 1 0 0 1 1 1 0 0 0 0 0 0 0 0 0 0 0 0 0 0 0 0 0 0 0 0 0 0 0
7 5 2 0 0 0 0 0 0 0 0 0 0 0 0 0 0 0 1 1 1 0 0 0 0 0 0 0 0 0 0 0 0 0 0 0 0 0 0 0 0 0 0 0 0 0 0 0 0
9 7 3 0 0 0 0 0 0 0 0 0 0 0 0 0 0 0 0 0 0 0 0 0 0 0 0 0 0 0 0 0 0 0 0 0 0 0 0 0 0 0 0 0 0 0 0 0 0
10 7 2 0 0 0 0 0 0 0 0 0 0 0 0 0 0 0 0 0 0 0 0 0 0 0 0 0 0 0 0 0 0 0 0 0 0 0 0 0 0 0 0 0 0 0 0 0 0
9 5 1 0 0 0 0 0 0 0 0 0 0 0 0 0 0 0 0 0 0 0 0 0 0 0 0 0 0 0 0 0 0 0 0 0 0 0 0 0 0 0 0 0 0 0 0 0 0
7 3 0 0 0 0 1 0 0 0 0 0 1 1 0 0 0 0 0 0 0 0 0 0 0 0 0 0 0 0 0 0 0 0 0 0 0 0 0 0 0 0 0 0 0 0 0 0 0
4 2 0 0 0 0 0 0 0 0 0 1 2 2 1 0 0 0 0 0 0 0 0 0 0 0 0 0 0 0 0 0 0 0 0 0 0 0 0 0 0 0 0 0 0 0 0 0 0
2 1 0 0 0 0 0 0 0 0 0 1 2 2 1 0 0 0 0 0 0 0 0 0 0 0 0 0 0 0 0 0 0 0 0 0 0 0 0 0 0 0 0 0 0 0 1 0 0
1 0 0 0 0 0 0 0 0 0 0 0 1 1 1 0 0 0 0 0 0 0 0 0 0 0 0 0 0 0 0 0 0 0 0 0 0 0 0 0 0 0 0 0 0 0 0 0 0
0 0 0 0 0 0 0 0 0 0 0 0 0 0 0 0 0 0 0 0 0 0 0 0 0 0 0 0 0 0 0 0 0 0 0 0 0 0 0 0 0 0 0 0 0 0 0 0 0
0 0 0 1 1 1 0 0 0 0 0 0 0 0 0 0 0 0 0 0 0 0 0 0 0 0 0 0 0 0 0 0 0 0 0 0 0 0 0 0 0 0 0 0 0 0 0 0 0
0 0 0 1 1 1 0 0 0 0 0 0 0 0 0 0 0 0 0 0 0 0 0 0 0 0 0 0 0 0 0 0 0 0 0 0 0 0 0 0 0 0 0 0 0 0 0 0 0
0 0 0 0 0 0 0 0 0 0 1 0 0 0 0 0 0 0 0 0 0 0 1 1 0 0 0 0 0 0 0 0 0 0 0 0 0 0 0 0 0 0 0 0 0 0 0 0 0
0 0 0 0 0 0 0 0 0 0 0 0 0 0 0 0 0 0 0 0 0 1 2 2 1 0 0 0 0 0 0 0 0 0 0 0 0 0 0 0 0 0 0 0 0 0 0 0 0
0 0 0 0 0 0 0 0 0 0 0 0 0 0 0 0 0 0 0 0 0 1 2 2 1 0 0 0 0 0 0 0 0 0 0 0 0 0 0 0 0 0 0 0 0 0 0 0 0
0 0 0 0 0 0 0 0 0 0 0 0 0 0 0 0 0 0 0 0 0 1 2 3 1 1 1 0 0 0 0 0 0 0 0 0 0 0 0 0 0 0 0 0 0 0 0 0 0
0 0 0 0 0 0 0 0 0 0 0 0 0 0 0 0 0 0 0 0 0 1 2 3 2 2 2 1 0 0 0 0 0 0 0 0 0 0 0 0 0 0 0 0 0 0 0 0 0
0 0 0 0 0 0 0 0 0 0 0 0 0 0 0 0 0 0 0 0 0 1 2 3 3 2 2 1 0 0 0 0 0 0 0 0 0 0 0 0 0 0 0 0 0 0 0 0 0
0 0 0 0 0 0 0 0 0 1 1 1 0 0 0 0 0 0 0 0 0 1 2 3 3 3 3 2 1 0 0 0 0 0 0 0 0 0 0 0 0 0 0 0 0 0 0 0 0
0 0 0 0 0 0 0 0 0 1 2 1 0 0 0 0 0 0 0 0 0 1 2 3 3 3 3 2 1 0 0 0 0 0 0 0 0 0 0 0 0 0 0 0 0 0 0 0 0
0 0 0 0 0 0 0 0 0 1 1 1 0 0 0 0 0 0 0 0 0 1 2 3 3 3 2 2 1 0 0 0 0 0 0 0 0 0 0 0 0 0 0 0 0 0 0 0 0
0 0 0 0 0 0 0 0 0 0 1 1 0 0 0 0 0 0 0 0 0 1 2 3 3 3 3 2 1 0 0 0 0 0 0 0 0 0 0 0 0 0 0 0 0 0 0 0 0
0 0 0 0 0 0 0 0 0 0 0 1 0 0 0 0 0 0 0 0 0 1 2 3 3 3 3 3 1 0 0 0 0 0 0 0 0 0 0 0 0 0 0 0 0 0 0 0 0
0 0 0 0 0 0 0 0 0 0 0 0 0 0 0 0 0 0 0 0 0 1 2 3 3 3 3 3 2 1 0 0 0 0 0 0 0 0 0 0 0 0 0 0 0 0 0 0 0
0 0 0 0 0 0 0 0 0 0 0 0 0 0 0 1 1 1 0 0 0 1 3 3 3 3 3 3 2 1 0 0 0 0 0 0 0 0 0 0 0 0 0 0 0 0 0 0 0
0 0 0 0 0 0 0 0 0 0 0 0 0 0 1 1 2 1 0 0 1 2 3 3 3 3 3 3 2 1 0 0 0 0 0 0 0 0 0 0 0 0 0 0 0 0 0 0 0
0 0 0 0 0 0 0 0 0 0 0 0 0 0 0 1 2 1 0 1 2 3 3 3 3 3 3 3 3 1 1 1 1 2 2 1 0 0 0 0 0 0 0 0 0 0 0 0 0
0 0 0 0 0 0 0 0 0 0 0 0 0 0 0 1 2 1 0 1 2 3 3 3 3 3 3 3 3 2 2 2 3 4 4 1 0 0 0 0 0 0 0 0 0 0 0 0 0
Wind_Speed
12 10 5 2 2 1 5 6 8 7 8 9 11 12 14 14 11 10 3 6 11 12 11 11 13 13 14 14 14 14 13 12 12 12 11 11 11 10 10 10 10 10 10 10 9 9 8 8 8
11 7 4 3 2 2 6 7 9 10 8 8 11 14 14 13 12 9 4 7 11 13 11 11 13 14 14 14 14 13 13 12 11 11 10 10 10 10 10 10 10 10 9 9 9 8 8 8 8
12 8 4 3 1 3 7 8 9 9 8 9 11 12 10 9 10 6 6 10 13 13 12 12 13 14 14 13 13 12 11 11 10 10 10 9 9 9 9 9 9 9 9 9 8 8 8 7 7
6 4 4 0 6 8 9 9 8 9 8 9 11 11 11 10 9 9 9 12 14 13 12 11 13 13 13 13 13 12 11 11 10 10 9 9 9 9 9 9 9 9 9 8 8 8 7 8 8
3 3 2 3 7 8 8 8 8 8 10 14 15 14 12 11 11 11 9 12 13 12 11 12 13 13 13 13 12 11 11 11 10 9 9 9 9 9 9 9 9 8 8 8 8 8 7 7 7
3 3 1 4 8 7 7 8 10 12 14 15 15 14 10 9 10 9 9 10 12 12 12 11 13 13 13 12 11 11 10 9 9 8 7 7 7 7 7 8 8 8 8 8 7 7 7 6 6
3 3 1 6 7 7 7 8 9 10 12 11 12 12 9 9 7 8 9 9 9 10 10 9 10 10 12 12 11 9 8 7 7 6 4 3 4 5 6 7 7 7 7 7 6 6 6 5 5
3 2 3 5 7 7 6 8 9 10 10 11 10 10 10 9 8 7 8 7 7 7 7 8 8 9 8 8 9 8 7 5 4 3 1 1 1 2 4 6 6 5 5 5 5 5 5 5 6
3 0 2 5 7 7 7 9 9 10 11 12 14 15 13 12 10 8 7 7 6 7 6 6 6 6 6 6 7 7 6 4 4 3 3 3 1 1 2 5 3 2 2 3 4 5 6 7 6
1 1 4 5 7 8 7 9 9 10 12 15 16 15 14 11 10 8 7 8 7 6 6 5 5 5 5 5 4 2 3 2 1 1 1 1 1 1 3 3 2 3 3 4 5 7 7 6 3
1 3 5 7 8 8 9 8 9 10 11 13 14 15 12 11 9 8 8 8 7 5 4 5 5 5 5 3 3 1 1 1 2 2 3 3 3 1 1 1 1 2 1 2 3 4 2 2 2
5 6 6 7 7 7 8 8 9 9 11 12 12 13 11 10 8 8 9 8 7 5 4 4 5 5 5 4 2 2 2 2 2 3 3 2 2 2 2 2 2 2 1 2 2 2 3 3 3
8 8 7 7 6 7 9 10 11 11 12 12 11 10 9 9 9 8 8 9 8 6 5 4 5 6 5 2 1 4 3 2 2 2 3 4 3 3 3 2 2 3 3 3 3 3 3 3 3
8 10 8 8 7 7 9 9 9 10 10 11 11 9 9 8 8 8 7 8 8 6 6 5 5 4 4 2 2 3 3 2 3 2 4 4 3 3 3 3 3 3 3 3 3 4 3 3 2
10 10 8 5 6 6 7 8 8 9 10 9 9 9 8 7 6 6 6 6 7 8 7 5 4 5 5 4 4 3 3 3 3 3 4 4 4 4 4 4 4 3 4 4 4 5 4 4 4
7 5 5 4 5 5 4 7 8 7 9 8 8 8 7 5 6 6 6 7 7 7 7 4 5 5 5 4 4 3 4 3 3 3 4 5 5 5 4 3 3 4 4 4 3 3 4 4 4
4 5 7 6 6 5 4 6 7 6 7 8 7 8 8 6 7 6 5 6 6 6 6 5 5 4 4 3 3 3 3 3 3 4 4 5 6 6 4 3 3 4 4 4 5 4 3 4 4
6 6 6 6 6 6 5 6 7 7 7 8 8 8 9 8 8 7 5 5 4 5 7 6 4 4 3 2 2 2 3 3 3 3 3 4 4 6 5 3 4 4 3 4 4 4 4 3 3
6 6 5 5 5 5 6 7 7 7 7 8 8 8 9 9 9 7 6 4 4 5 6 6 5 4 3 2 2 2 2 2 3 3 4 4 5 5 4 4 3 3 3 4 4 4 5 4 4
7 8 6 5 5 5 7 7 7 8 9 9 9 9 8 9 10 8 6 5 4 5 5 5 5 5 4 2 1 2 2 2 3 2 3 4 4 5 5 4 3 3 2 4 4 4 3 4 4
5 7 7 6 6 6 6 5 8 9 8 8 7 8 9 10 11 10 8 7 5 5 5 5 5 5 4 3 2 2 2 1 2 2 2 2 3 3 4 4 4 3 3 3 3 4 4 3 4
4 5 6 6 5 4 6 4 8 11 9 9 8 7 8 8 9 9 8 7 6 5 4 5 5 5 4 4 2 2 2 2 2 2 2 2 3 4 4 4 4 4 3 3 4 4 3 3 3
3 5 6 7 5 4 7 4 6 11 11 12 11 10 8 9 9 9 8 7 7 6 4 4 5 5 5 4 3 3 3 2 2 2 2 2 3 3 4 4 4 4 3 4 4 4 4 3 3
3 5 6 6 5 5 8 6 4 9 13 14 14 13 11 10 9 9 8 8 7 6 5 4 6 5 4 3 3 3 3 2 3 3 2 1 2 2 3 3 3 3 3 4 4 3 4 3 3
5 3 2 4 4 4 5 5 3 7 10 11 13 13 12 11 10 10 9 8 7 7 6 5 6 5 4 3 3 4 3 2 2 2 1 1 2 2 2 3 3 3 3 4 4 4 3 3 4
8 6 2 2 2 2 4 4 4 7 7 7 9 11 11 12 11 10 10 9 8 8 7 6 6 5 4 3 2 3 3 2 2 2 1 2 2 1 2 2 2 3 3 4 3 3 3 3 4
5 5 5 3 5 3 3 4 6 7 7 7 8 9 10 11 11 11 10 10 9 8 7 6 6 5 5 3 2 2 3 3 2 1 2 2 2 2 2 2 2 2 3 3 3 2 3 3 3
5 5 3 3 2 2 2 4 6 10 9 9 9 9 9 9 10 10 9 9 9 8 7 7 6 6 5 4 3 3 3 3 2 2 3 2 2 2 1 2 2 2 2 3 3 2 3 3 2
7 6 4 4 4 1 2 2 2 8 8 9 9 9 9 9 10 10 9 9 8 8 7 6 6 6 5 4 3 4 2 2 2 2 2 1 1 1 1 2 2 3 3 2 2 2 3 3 4
6 6 6 4 4 3 1 1 2 6 8 7 8 9 9 10 10 10 9 9 8 8 8 7 7 6 5 4 4 4 3 2 2 2 1 1 1 2 2 3 3 3 3 3 3 3 3 3 4
Wind_Direction
285 267 258 262 258 225 70 75 83 76 66 60 66 72 68 55 64 91 124 102 99 99 96 86 80 81 82 82 82 80 78 76 73 71 70 69 67 65 60 57 55 52 51 49 45 42 39 37 31
287 290 283 245 256 104 82 78 77 78 92 90 75 76 75 72 78 93 104 95 97 95 90 86 85 84 83 83 82 81 80 77 74 70 67 66 64 61 58 54 52 49 47 45 42 38 35 32 28
269 271 266 257 0 79 95 92 92 90 86 85 80 63 57 73 78 99 119 105 94 93 93 90 89 88 87 87 85 83 81 78 74 69 65 63 61 58 55 52 50 47 44 42 38 36 30 27 22
271 265 249 252 72 76 99 109 110 102 88 83 87 72 66 72 94 115 118 105 100 99 98 96 93 90 87 86 85 83 80 76 71 68 65 63 59 56 53 50 47 44 42 39 35 32 29 25 20
253 261 247 98 87 89 94 102 103 91 83 79 84 91 88 86 101 106 105 104 103 104 105 105 100 94 90 87 84 81 78 75 72 69 66 62 60 57 52 48 43 41 38 36 32 28 25 21 13
282 262 224 116 107 95 91 101 101 98 97 99 100 98 95 98 96 97 97 96 104 110 111 115 112 106 100 92 86 80 78 76 73 70 67 66 67 64 58 50 42 39 35 31 27 22 16 10 2
280 283 155 123 115 103 92 93 98 101 100 99 107 104 107 103 102 100 98 98 103 112 121 126 127 119 111 103 97 92 88 85 82 79 77 77 83 84 75 62 43 38 32 26 21 12 2 352 341
287 297 129 123 112 98 96 97 97 94 96 109 112 111 122 126 121 107 102 101 105 106 112 119 127 131 129 121 114 113 112 112 114 116 136 198 195 137 101 76 56 39 25 13 5 350 332 320 312
283 296 120 112 118 117 117 104 99 98 93 82 85 106 123 133 128 120 115 111 104 106 111 109 114 120 125 127 129 143 142 152 167 191 232 248 213 160 132 94 97 39 348 329 319 309 303 298 288
234 104 91 99 116 122 117 112 112 108 99 96 98 109 124 133 130 128 126 118 110 106 104 109 113 118 103 88 114 132 119 134 151 91 61 1 48 41 58 132 200 247 275 296 283 284 289 285 272
119 101 94 88 104 115 115 110 110 111 109 113 120 128 136 136 131 127 114 105 100 97 97 105 108 104 105 99 95 83 95 96 53 37 63 28 19 33 64 150 212 262 285 313 303 289 290 317 330
112 94 94 95 95 104 109 105 97 97 112 119 125 133 138 135 125 114 106 109 105 96 86 87 102 95 82 78 96 92 69 73 53 8 46 49 18 17 19 38 5 350 360 348 332 323 349 352 350
113 106 101 106 106 104 106 100 98 100 109 120 129 132 133 125 121 117 116 115 115 110 98 79 73 89 93 78 67 89 60 45 75 17 28 45 34 25 5 42 12 5 6 5 341 346 359 357 354
117 118 115 109 108 105 108 112 116 122 123 126 130 128 120 115 116 116 119 122 123 114 98 84 77 84 98 102 79 79 103 87 61 28 38 35 37 35 14 22 18 12 1 358 355 360 353 346 349
117 115 111 120 122 123 126 119 122 130 133 132 132 124 117 118 118 117 120 118 113 110 101 88 85 75 63 54 50 67 60 63 57 36 30 37 44 40 32 14 10 6 4 6 6 359 352 355 2
129 128 127 138 145 160 154 133 130 142 143 139 134 126 125 130 126 112 106 105 104 106 105 99 87 83 77 58 38 56 55 52 61 48 23 18 34 46 42 17 6 12 10 3 5 6 1 356 358
167 159 144 150 168 168 147 136 142 150 152 150 146 144 151 155 132 121 116 111 110 114 118 108 93 95 95 100 86 73 78 57 62 55 29 12 20 29 38 24 14 17 17 5 5 10 0 350 341
167 157 149 156 164 155 147 145 154 162 176 167 162 165 163 158 141 133 128 117 121 122 116 111 107 98 96 82 86 76 58 61 70 72 47 21 22 22 21 27 24 19 18 2 4 359 354 347 338
147 147 146 142 146 152 159 163 171 176 184 180 177 173 168 155 145 139 141 144 147 128 121 127 127 114 99 72 65 75 72 61 63 66 50 35 35 23 17 24 23 24 24 10 8 3 355 353 354
145 150 148 144 162 168 169 182 185 186 193 189 184 175 169 157 148 145 153 148 131 114 114 111 105 100 91 78 84 95 89 87 90 64 55 40 39 26 18 21 12 18 24 11 7 10 359 350 7
150 164 163 161 172 187 177 190 187 187 194 192 193 179 176 170 160 159 161 147 136 126 123 122 121 115 111 105 74 64 71 47 74 73 63 46 53 40 14 17 8 8 24 18 11 15 14 356 353
159 175 170 179 186 197 198 198 198 186 187 189 193 191 180 167 157 155 156 149 146 139 134 128 118 115 113 108 79 69 81 72 69 73 73 59 56 48 22 15 8 14 25 23 10 22 3 9 356
160 179 188 203 222 233 213 216 203 177 187 192 192 194 183 170 163 154 155 150 145 137 132 123 112 99 92 95 91 61 58 67 69 63 57 59 63 53 35 15 10 13 21 24 24 14 10 10 6
179 186 202 223 236 241 220 213 205 183 191 187 187 189 184 171 162 154 149 144 137 132 130 120 114 106 104 106 111 105 90 75 67 57 42 36 62 51 39 20 13 18 20 20 13 13 13 8 4
204 209 211 205 215 230 209 210 196 175 178 178 178 181 179 168 163 158 153 150 144 143 145 140 132 131 138 153 148 134 122 111 96 81 56 34 58 49 35 32 17 22 21 18 13 8 360 8 10
206 211 237 271 247 256 213 196 140 131 141 154 166 170 169 166 167 165 160 155 152 153 155 154 148 149 155 172 154 132 130 112 89 71 64 59 66 58 39 37 34 34 26 17 13 4 354 15 9
225 221 236 270 281 267 228 142 126 132 143 153 161 163 168 168 166 164 158 156 157 159 162 161 155 157 163 167 143 113 106 95 81 61 61 65 62 47 28 18 44 45 39 25 11 12 3 12 5
260 265 248 251 283 282 236 190 160 160 166 166 167 166 165 162 161 156 155 156 158 158 162 162 165 166 165 163 152 117 99 102 84 57 58 45 45 34 2 20 32 37 42 42 24 6 360 358 347
217 233 253 262 256 267 339 341 92 151 158 167 172 169 167 163 160 158 156 156 155 156 161 166 170 163 158 158 139 124 124 115 112 92 75 62 59 34 27 30 29 31 27 40 31 2 2 354 348
233 244 252 264 288 285 229 226 147 142 150 158 163 165 166 163 159 156 155 156 159 165 170 173 173 160 154 151 137 140 143 142 136 119 94 42 45 27 19 35 31 24 20 22 18 355 359 353 348